Flag for Algeria Weather past 2 weeks in Oran, Algeria

Now
63 °F

Partly cloudy.


Feels Like: 63 °F
Forecast: 61 / 71 °F
Wind: 9 mph from West

Location: Oran / Es Senia

Current Time: Apr 25, 2015 at 11:27:05 PM

Latest Report: Apr 25, 2015 at 10:30 PM


Visibility: N/A

Pressure: 29.98 "Hg

Humidity: 73%

Dew point: 54 °F

Location of OranLocation

Historic Weather in Oran — Graph

°F

Oran temperature yesterday

Maximum temperature yesterday: 73 °F (at 12:00 PM)
Minimum temperature yesterday: 59 °F (at 5:30 AM)
Average temperature yesterday: 65 °F

Past Weeks' High & Low Weather Summary

 TemperatureHumidityPressure
High95 °F (Apr 14, 3:00 PM)100% (Apr 12, 8:00 AM)30.24 "Hg (Apr 12, 8:00 AM)
Low50 °F (Apr 17, 6:30 AM)8% (Apr 13, 4:00 PM)29.89 "Hg (Apr 14, 5:30 PM)
Average65 °F71%30.06 "Hg
* Reported Apr 10 9:00 PM — Apr 25 9:30 PM, Oran, Weather by CustomWeather, © 2015

Note: Actual official high and low records may vary slightly from our data, if they occured in-between our weather recording intervals... More about our weather records

Advertising

Oran weather history for previous 24 hours

 ConditionsComfort  
Time TempWeatherWind HumidityBarometerVisibility
9:30 PM
Sat, Apr 25
64 °FPartly cloudy.5 mph64%29.98 "HgN/A
9:00 PM64 °FPartly cloudy.12 mph60%29.98 "HgN/A
8:30 PM66 °FPartly cloudy.12 mph56%29.98 "HgN/A
8:00 PM68 °FPartly cloudy.9 mph53%29.98 "HgN/A
7:30 PM68 °FSunny.12 mph53%29.95 "Hg10 mi
7:00 PM72 °FSunny.14 mph47%29.95 "Hg10 mi
6:30 PM73 °FSunny.12 mph53%29.95 "Hg10 mi
6:00 PM73 °FSunny.13 mph53%29.95 "Hg10 mi
5:30 PM75 °FSunny.10 mph47%29.95 "Hg10 mi
5:00 PM77 °FSunny.10 mph44%29.98 "Hg10 mi
4:30 PM77 °FSunny.10 mph47%29.98 "Hg10 mi
4:00 PM77 °FSunny.14 mph47%29.98 "Hg10 mi
3:30 PM79 °FSunny.14 mph45%30.01 "Hg10 mi
3:00 PM79 °FSunny.13 mph45%30.01 "Hg10 mi
2:00 PM77 °FSunny.9 mph47%30.01 "Hg10 mi
1:30 PM79 °FSunny.10 mph45%30.01 "Hg10 mi
1:00 PM77 °FSunny.10 mph47%30.01 "Hg10 mi
12:30 PM75 °FSunny.10 mph29%30.01 "Hg10 mi
12:00 PM75 °FSunny.9 mph29%30.04 "Hg10 mi
11:30 AM73 °FSunny.12 mph31%30.04 "Hg10 mi
11:00 AM73 °FSunny.12 mph31%30.07 "Hg10 mi
10:30 AM72 °FSunny.10 mph41%30.07 "Hg10 mi
10:00 AM70 °FSunny.13 mph43%30.07 "Hg10 mi
9:30 AM68 °FSunny.15 mph69%30.04 "Hg10 mi
9:00 AM66 °FSunny.10 mph73%30.04 "Hg10 mi
8:00 AM61 °FSunny.5 mph88%30.04 "Hg10 mi
7:30 AM59 °FSunny.6 mph88%30.04 "Hg10 mi
7:00 AM55 °FSunny.6 mph94%30.04 "Hg10 mi
6:30 AM55 °FSunny.2 mph94%30.01 "Hg10 mi
6:00 AM57 °FPassing clouds.3 mph94%30.01 "Hg6 mi
5:30 AM57 °FPassing clouds.5 mph94%30.01 "Hg6 mi
4:30 AM57 °FPassing clouds.7 mph94%30.01 "Hg6 mi
4:00 AM57 °FPassing clouds.7 mph94%30.01 "Hg6 mi
3:30 AM57 °FPassing clouds.7 mph88%30.01 "Hg6 mi
3:00 AM57 °FPassing clouds.5 mph88%30.01 "Hg6 mi
2:30 AM57 °FPassing clouds.5 mph88%30.01 "Hg6 mi
2:00 AM59 °FPassing clouds.5 mph82%30.01 "Hg6 mi
1:30 AM59 °FPassing clouds.20 mph82%30.01 "Hg6 mi
1:00 AM59 °FPassing clouds.6 mph82%30.01 "Hg6 mi
12:30 AM59 °FPassing clouds.6 mph88%30.04 "Hg6 mi
12:00 AM61 °FPassing clouds.6 mph88%30.04 "Hg6 mi
11:30 PM
Fri, Apr 24
63 °FPassing clouds.9 mph83%30.01 "Hg6 mi
11:00 PM63 °FPassing clouds.9 mph83%30.01 "Hg6 mi
Weather by CustomWeather, © 2015

See weather overviewHow to use our weather pages